LRBO Weather Reports


Display with metric or nautical units.
time (UTC)temp
F
wind
direction
speed
MPH
gust
MPH
rain 1hr
in
rain 24hr
in
rain mn
in
humidity
%
barometer
mb
20260510230353 54 3.0 0.0 0.00 0.00 0.00 94 1014.0
20260510224942 54 3.0 0.0 0.00 0.00 0.00 94 1014.0
20260510223353 54 3.0 0.0 0.00 0.00 0.00 94 1014.0
20260510221850 54 3.0 0.0 0.00 0.00 0.00 94 1014.0
20260510220433 54 3.0 0.0 0.00 0.00 0.00 94 1014.0
20260510214853 54 3.0 0.0 0.00 0.00 0.00 94 1014.0
20260510213353 55 3.0 0.0 0.00 0.00 0.00 94 1013.0
20260510211853 55 3.0 0.0 0.00 0.00 0.00 94 1013.0
20260510210353 55 3.0 0.0 0.00 0.00 0.00 94 1013.0
20260510204852 57 3.0 0.0 0.00 0.00 0.00 94 1013.0
20260510203350 57 3.0 0.0 0.00 0.00 0.00 94 1013.0
20260510201857 57 3.0 0.0 0.00 0.00 0.00 94 1013.0
20260510200354 57 3.0 0.0 0.00 0.00 0.00 94 1013.0
20260510194850 57 3.0 0.0 0.00 0.00 0.00 94 1014.0
20260510193354 57 3.0 0.0 0.00 0.00 0.00 94 1014.0
20260510191949 57 3.0 0.0 0.00 0.00 0.00 94 1014.0
20260510190354 57 3.0 0.0 0.00 0.00 0.00 94 1014.0
20260510184851 59 3.0 0.0 0.00 0.00 0.00 100 1014.0
20260510183353 59 3.0 0.0 0.00 0.00 0.00 100 1014.0
20260510181853 59 3.0 0.0 0.00 0.00 0.00 100 1014.0
20260510180354 59 3.0 0.0 0.00 0.00 0.00 100 1014.0
20260510174854 61 30 2.0 0.0 0.00 0.00 0.00 94 1014.0
20260510173353 61 30 2.0 0.0 0.00 0.00 0.00 94 1014.0
20260510171853 61 30 2.0 0.0 0.00 0.00 0.00 94 1014.0
20260510170353 61 30 2.0 0.0 0.00 0.00 0.00 94 1014.0
20260510164853 63 30 7.0 0.0 0.00 0.00 0.00 88 1014.0
20260510163353 63 30 7.0 0.0 0.00 0.00 0.00 88 1014.0
20260510161853 63 30 7.0 0.0 0.00 0.00 0.00 88 1014.0
20260510160353 63 30 7.0 0.0 0.00 0.00 0.00 88 1014.0
20260510154854 61 300 11.0 0.0 0.00 0.00 0.00 94 1014.0
20260510153355 61 300 11.0 0.0 0.00 0.00 0.00 94 1014.0
20260510151853 61 300 11.0 0.0 0.00 0.00 0.00 94 1014.0
20260510150353 61 300 11.0 0.0 0.00 0.00 0.00 94 1014.0
20260510144853 64 70 7.0 0.0 0.00 0.00 0.00 40 1014.0
20260510143353 64 70 7.0 0.0 0.00 0.00 0.00 40 1014.0
20260510141854 64 70 7.0 0.0 0.00 0.00 0.00 40 1014.0
20260510140354 64 70 7.0 0.0 0.00 0.00 0.00 40 1014.0
20260510134854 66 60 7.0 0.0 0.00 0.00 0.00 68 1014.0
20260510133353 66 60 7.0 0.0 0.00 0.00 0.00 68 1014.0
20260510131853 66 60 7.0 0.0 0.00 0.00 0.00 68 1014.0
20260510130402 66 60 7.0 0.0 0.00 0.00 0.00 68 1014.0
20260510124920 63 70 7.0 0.0 0.00 0.00 0.00 83 1015.0
20260510123353 63 70 7.0 0.0 0.00 0.00 0.00 83 1015.0
20260510121850 63 70 7.0 0.0 0.00 0.00 0.00 83 1015.0
20260510120457 63 70 7.0 0.0 0.00 0.00 0.00 83 1015.0
20260510114855 66 30 7.0 0.0 0.00 0.00 0.00 73 1015.0
20260510113353 66 30 7.0 0.0 0.00 0.00 0.00 73 1015.0
20260510111850 66 30 7.0 0.0 0.00 0.00 0.00 73 1015.0
20260510110350 66 30 7.0 0.0 0.00 0.00 0.00 73 1015.0
20260510104854 66 40 9.0 0.0 0.00 0.00 0.00 37 1015.0
20260510103354 66 40 9.0 0.0 0.00 0.00 0.00 37 1015.0
20260510101853 66 40 9.0 0.0 0.00 0.00 0.00 37 1015.0
20260510100401 66 40 9.0 0.0 0.00 0.00 0.00 37 1015.0
20260510094855 63 20 5.0 0.0 0.00 0.00 0.00 88 1016.0
20260510093354 63 20 5.0 0.0 0.00 0.00 0.00 88 1016.0
20260510091900 63 20 5.0 0.0 0.00 0.00 0.00 88 1016.0
20260510090354 63 20 5.0 0.0 0.00 0.00 0.00 88 1016.0
20260510084850 59 330 5.0 0.0 0.00 0.00 0.00 94 1016.0
20260510083353 59 330 5.0 0.0 0.00 0.00 0.00 94 1016.0
20260510081853 59 330 5.0 0.0 0.00 0.00 0.00 94 1016.0
20260510080353 59 330 5.0 0.0 0.00 0.00 0.00 94 1016.0
20260510074853 59 280 7.0 0.0 0.00 0.00 0.00 100 1016.0
20260510073403 59 280 7.0 0.0 0.00 0.00 0.00 100 1016.0
20260510071849 59 280 7.0 0.0 0.00 0.00 0.00 100 1016.0
20260510070355 59 280 7.0 0.0 0.00 0.00 0.00 100 1016.0
20260510064849 55 280 3.0 0.0 0.00 0.00 0.00 88 1015.0
20260510063353 55 280 3.0 0.0 0.00 0.00 0.00 88 1015.0
20260510061850 55 280 3.0 0.0 0.00 0.00 0.00 88 1015.0
20260510060353 55 280 3.0 0.0 0.00 0.00 0.00 88 1015.0
20260510054850 52 40 7.0 0.0 0.00 0.00 0.00 94 1015.0
20260510053401 52 40 7.0 0.0 0.00 0.00 0.00 94 1015.0
20260510051853 52 40 7.0 0.0 0.00 0.00 0.00 94 1015.0
20260510050353 52 40 7.0 0.0 0.00 0.00 0.00 94 1015.0
20260510044851 52 3.0 0.0 0.00 0.00 0.00 94 1015.0
20260510043353 52 3.0 0.0 0.00 0.00 0.00 94 1015.0
20260510041853 52 3.0 0.0 0.00 0.00 0.00 94 1015.0
20260510040353 52 3.0 0.0 0.00 0.00 0.00 94 1015.0
20260510034847 52 3.0 0.0 0.00 0.00 0.00 94 1015.0
20260510033359 52 3.0 0.0 0.00 0.00 0.00 94 1015.0
20260510031851 52 3.0 0.0 0.00 0.00 0.00 94 1015.0
20260510030354 52 3.0 0.0 0.00 0.00 0.00 94 1015.0
20260510024848 52 3.0 0.0 0.00 0.00 0.00 94 1017.0
20260510023354 52 3.0 0.0 0.00 0.00 0.00 94 1017.0
20260510021847 52 3.0 0.0 0.00 0.00 0.00 94 1017.0
20260510020353 52 3.0 0.0 0.00 0.00 0.00 94 1017.0
20260510014851 52 3.0 0.0 0.00 0.00 0.00 94 1017.0
20260510013353 0 0.0 0.0 0.00 0.00 0.00
20260510011850 0 0.0 0.0 0.00 0.00 0.00
20260510010354 0 0.0 0.0 0.00 0.00 0.00
20260510004850 54 3.0 0.0 0.00 0.00 0.00 88 1017.0
20260510003353 54 3.0 0.0 0.00 0.00 0.00 88 1017.0
20260510001850 54 3.0 0.0 0.00 0.00 0.00 88 1017.0
20260510000353 54 3.0 0.0 0.00 0.00 0.00 88 1017.0
20260509234851 0 0.0 0.0 0.00 0.00 0.00
20260509233408 0 0.0 0.0 0.00 0.00 0.00
20260509231850 0 0.0 0.0 0.00 0.00 0.00